Theta_e
295 294 293 292 292 292 292 291 291 290 290 287 286 285 284 282 282 282 282 281 280 280 279 279 278 277 276 276 277 276 276 275 273 274 275 274 274 274 274 274 275 274 274
294 294 293 293 293 293 292 291 291 288 287 286 284 284 283 282 282 282 281 280 279 279 279 278 276 277 275 275 276 275 275 275 274 271 272 272 273 273 272 272 273 274 273
294 294 293 293 293 292 291 288 286 286 285 284 284 283 282 283 282 281 281 280 280 279 279 277 277 276 275 275 274 274 274 276 274 273 271 273 272 272 272 271 271 271 273
294 294 292 292 291 289 287 285 284 284 284 284 283 283 283 282 282 281 281 280 280 279 280 279 277 276 276 275 275 275 275 274 273 272 272 271 271 272 270 268 268 270 269
293 292 291 289 288 286 284 283 283 282 283 283 282 282 282 282 282 280 280 279 279 278 279 279 278 277 279 278 276 275 274 273 272 271 270 269 269 269 267 268 267 268 268
292 290 289 286 284 283 283 282 281 281 281 281 281 281 280 282 284 286 283 279 279 278 277 277 278 277 279 281 282 281 277 273 272 271 269 268 269 268 268 268 266 265 262
290 288 286 284 282 282 281 281 280 280 279 279 279 279 279 280 285 286 286 281 279 278 277 278 277 278 277 277 280 281 280 279 277 273 270 269 268 268 268 267 266 264 263
288 287 284 283 282 281 280 279 279 279 278 278 278 278 278 278 283 285 286 282 279 278 277 277 277 276 276 276 275 274 274 273 273 272 271 270 269 270 269 268 264 262 262
287 285 283 282 281 280 279 279 279 278 277 277 277 277 277 277 282 284 284 281 280 278 278 277 276 276 278 281 275 273 273 272 275 276 274 272 271 271 270 263 254 253 254
286 285 284 283 282 281 281 280 279 278 278 277 277 276 276 277 281 283 283 280 278 278 277 277 279 277 279 281 277 274 272 271 270 267 267 266 266 265 267 264 260 251 253
286 285 283 283 283 282 281 279 276 275 276 274 275 275 275 275 276 282 283 280 279 278 277 276 276 281 282 281 281 274 273 271 271 265 264 263 263 263 262 262 262 259 254
280 279 279 278 277 277 274 273 272 271 271 272 270 273 273 274 276 279 282 283 282 278 277 277 276 280 281 282 281 280 279 272 263 261 260 261 261 261 261 261 261 261 261
273 272 270 270 273 273 271 271 270 268 269 271 272 273 274 274 274 279 282 283 283 281 280 279 280 280 281 281 281 281 274 264 261 258 259 260 261 261 260 259 260 258 258
271 271 270 269 270 269 271 272 270 270 269 272 272 273 274 274 274 272 273 275 278 280 281 279 281 281 280 277 272 277 266 264 262 261 260 261 260 259 258 259 257 256 252
270 270 270 269 267 269 270 271 272 273 274 273 274 273 273 273 275 277 276 272 272 274 273 266 275 277 276 269 265 265 264 262 260 260 258 258 258 258 258 257 256 252 249
269 270 269 269 269 269 269 271 276 279 281 282 283 281 280 280 282 283 283 282 282 282 277 269 272 274 271 268 266 264 263 261 261 259 258 257 258 258 257 256 255 251 249
265 267 268 268 268 267 267 264 268 273 278 279 281 281 282 282 283 283 283 284 284 283 278 275 270 271 270 269 267 265 263 262 259 259 258 258 257 256 255 254 253 253 250
262 263 262 263 263 264 264 266 264 267 268 270 275 276 278 279 280 280 281 281 279 282 279 277 271 271 269 268 267 264 262 259 259 259 258 257 255 254 253 253 252 250 247
263 264 263 263 262 264 264 265 266 266 267 268 269 272 271 275 276 277 278 274 275 277 278 276 276 271 270 268 266 263 262 260 259 258 257 255 254 252 252 252 251 250 247
262 264 262 262 263 264 264 263 265 265 266 266 267 268 269 261 267 268 263 267 269 272 275 276 272 271 269 266 264 262 260 259 258 257 256 255 254 253 252 251 249 248 245
261 262 262 261 260 261 262 262 263 264 264 264 265 267 273 270 269 269 269 267 268 269 271 271 269 268 266 264 262 260 259 258 257 256 255 254 253 251 252 252 249 247 242
260 261 261 261 261 261 261 262 262 262 262 263 264 265 270 265 265 265 266 267 268 268 269 269 267 265 263 262 261 260 259 258 257 256 255 254 252 251 250 249 246 243 240
260 259 259 259 259 259 260 260 260 261 261 262 262 263 263 263 264 264 264 265 266 265 264 262 262 261 261 261 261 260 259 258 257 256 255 253 252 250 249 248 247 240 239
258 258 258 258 258 258 258 258 259 260 260 260 261 262 262 262 262 263 263 264 263 261 260 261 261 259 259 259 259 259 259 258 258 256 255 253 251 250 248 246 243 240 240
258 258 257 257 257 257 258 258 258 258 259 259 260 260 261 262 262 262 262 262 261 257 258 259 260 259 259 258 258 257 258 259 256 255 254 253 251 249 247 244 240 239 240
258 257 257 257 257 257 257 257 258 258 258 259 259 260 260 260 261 261 261 260 258 258 258 259 259 259 258 258 258 258 258 260 255 254 253 252 251 248 247 244 242 240 241
Wind_Speed
11 13 11 12 10 11 10 8 5 6 7 7 6 5 5 6 5 5 5 5 5 5 4 5 4 5 3 3 2 2 3 2 3 3 2 2 2 4 7 5 8 8 7
10 9 14 12 7 7 6 7 5 6 5 6 7 6 6 5 5 6 6 5 6 6 6 5 6 4 4 4 3 4 3 3 3 5 3 2 4 3 5 8 8 9 8
12 10 11 11 8 7 6 6 6 6 6 5 5 6 5 5 5 5 5 6 5 6 6 6 6 5 5 4 4 4 3 3 3 3 4 2 3 2 5 6 7 10 8
11 11 10 6 5 5 4 5 5 4 5 5 4 5 5 5 5 5 5 5 5 6 6 6 6 7 7 6 5 5 4 3 3 4 4 4 3 3 5 6 7 7 10
6 7 6 6 4 5 5 4 5 4 4 5 5 5 5 5 5 6 6 6 6 6 6 6 6 7 11 10 5 5 4 3 3 4 3 2 3 4 6 5 8 9 10
6 5 5 5 4 4 4 4 4 5 5 4 5 5 6 5 9 12 8 5 7 6 7 6 6 8 11 14 14 12 8 5 5 3 2 3 5 4 4 6 7 7 8
5 5 4 5 5 5 4 5 6 6 4 5 6 6 6 5 12 14 15 6 7 7 8 7 7 6 8 7 13 14 12 9 9 4 5 4 3 2 5 7 7 7 7
4 4 4 4 5 5 5 6 5 4 5 5 6 6 6 7 13 15 15 7 7 9 8 8 8 8 9 9 8 6 6 6 5 4 4 3 4 4 3 5 5 7 8
5 5 5 6 6 6 7 7 5 4 5 5 4 6 7 8 14 16 14 8 9 10 8 8 9 10 15 19 9 9 8 7 8 9 7 4 5 7 6 2 3 2 3
3 5 5 5 6 6 6 6 5 4 5 4 6 6 7 9 13 17 16 6 8 8 7 10 17 15 19 21 13 11 10 8 7 4 2 1 2 3 4 1 1 1 2
3 4 4 5 5 6 5 3 2 4 4 4 5 6 7 8 10 17 19 9 9 9 9 9 9 21 24 24 24 10 9 5 8 4 3 2 2 2 2 1 2 2 2
3 1 2 2 2 2 3 2 1 2 4 5 4 7 5 7 13 17 21 23 20 11 12 9 9 20 23 24 19 18 15 8 5 4 2 3 3 2 2 2 3 4 4
5 5 4 4 4 3 2 3 2 2 3 5 4 6 8 6 7 18 21 24 25 18 10 13 19 19 21 19 24 19 8 7 5 3 4 3 2 2 2 2 2 3 6
4 5 3 3 4 2 2 1 3 4 3 5 7 8 8 6 7 3 6 8 16 16 17 13 14 17 17 12 4 11 7 6 6 3 3 2 1 1 1 1 1 2 2
6 5 5 3 3 4 3 4 4 6 7 6 8 6 7 9 6 10 10 5 6 10 8 3 6 9 8 5 2 5 5 6 5 4 4 3 3 2 2 1 1 1 0
6 5 5 5 4 3 4 7 8 15 19 20 22 17 10 18 22 23 23 23 22 21 9 5 8 9 9 8 8 7 6 7 6 5 4 4 4 3 2 1 1 1 2
5 6 5 6 6 6 5 3 9 8 13 17 17 19 21 21 23 24 25 26 25 21 12 9 10 10 9 8 8 8 7 7 5 6 5 5 4 3 2 1 1 1 2
6 5 3 4 4 4 4 5 2 5 9 11 10 15 18 21 22 23 23 22 12 14 12 11 9 10 10 10 9 8 6 7 6 6 5 5 4 3 2 2 1 1 1
7 5 6 5 4 6 6 6 6 7 8 9 10 12 9 17 21 21 21 10 11 11 10 11 9 10 10 10 9 8 9 8 7 6 5 4 4 3 3 2 2 2 1
7 10 8 6 7 7 6 6 7 7 8 8 8 9 8 4 8 8 4 6 8 9 11 9 7 8 9 9 8 8 8 8 7 5 5 5 4 4 3 3 3 3 2
7 7 8 6 4 5 6 7 7 8 8 9 10 9 22 14 11 11 11 7 8 9 10 6 5 6 5 7 9 9 9 8 8 6 6 5 5 4 3 2 2 2 3
6 6 7 7 7 8 8 8 8 8 9 10 11 10 22 9 9 10 10 10 9 8 8 8 5 5 6 9 10 10 10 10 8 8 7 6 6 5 4 3 3 2 2
8 8 8 8 7 8 8 7 8 9 10 11 11 11 10 9 9 10 10 10 9 8 6 3 2 3 3 4 5 7 8 7 7 7 7 6 5 5 4 3 3 2 2
6 7 8 8 8 9 9 10 9 11 11 11 11 11 11 11 11 12 11 10 9 8 3 2 3 7 7 7 6 5 6 7 7 8 10 8 6 7 4 3 3 3 3
8 8 8 8 8 8 9 9 10 11 11 11 11 11 12 12 12 12 11 9 8 4 2 2 3 7 9 10 9 9 10 13 8 9 6 7 8 8 5 3 3 2 2
8 9 8 8 9 9 9 10 11 11 11 11 11 11 12 12 12 11 11 9 6 3 2 2 4 7 9 7 8 9 10 12 10 10 7 7 7 6 5 4 6 3 3
Wind_Direction
118 116 111 117 124 132 130 134 145 151 155 165 146 142 145 146 156 154 168 156 143 150 164 164 157 157 160 139 139 157 163 176 226 285 267 282 285 309 309 309 314 319 318
121 126 116 101 128 128 122 127 167 170 157 155 146 162 165 168 168 173 174 168 170 180 185 170 180 171 167 179 186 188 197 196 200 260 267 267 255 286 287 309 321 314 316
110 120 122 133 145 126 137 171 182 156 151 144 167 174 167 180 177 196 185 182 193 195 191 193 186 175 191 189 197 203 210 220 214 247 277 248 267 276 304 307 311 307 308
135 141 134 140 119 119 139 179 151 164 156 162 183 176 182 189 195 196 189 198 206 207 200 198 192 194 201 196 202 206 217 222 228 249 254 268 254 281 300 307 319 317 310
119 122 109 101 121 151 172 163 144 170 179 172 182 202 204 203 203 197 199 204 209 217 214 212 210 206 213 206 194 204 205 214 231 251 251 259 266 313 323 313 312 314 307
112 108 117 152 157 166 165 152 157 204 199 187 204 207 214 217 221 224 213 209 213 216 223 226 221 219 227 225 227 221 202 193 229 215 224 255 277 299 300 313 317 332 331
142 143 172 176 177 172 160 173 209 215 198 216 221 216 234 230 234 232 228 211 217 219 220 222 220 220 212 225 236 234 239 234 244 216 239 240 274 281 306 308 313 314 288
165 187 178 163 190 186 187 210 216 206 217 228 232 228 235 240 237 240 236 215 222 226 221 220 217 216 212 211 211 224 214 216 224 230 201 206 246 261 259 312 322 297 282
213 214 196 189 194 196 214 220 214 212 216 214 226 231 233 248 239 242 242 231 230 232 227 224 222 225 223 229 209 222 217 210 218 229 189 257 296 318 316 50 327 339 298
237 230 205 197 208 216 221 225 210 211 230 207 239 229 236 253 247 245 244 234 240 243 233 232 222 225 229 232 228 212 218 208 177 145 191 223 333 306 330 347 283 217 270
238 219 211 210 220 226 231 205 194 228 237 241 240 252 241 235 252 254 251 242 237 241 237 235 226 234 235 234 233 205 214 154 190 155 179 218 217 232 246 263 278 232 204
6 341 276 268 252 224 219 238 268 223 240 258 254 266 248 240 239 254 251 246 244 235 238 237 231 233 241 239 234 230 216 163 135 153 192 224 222 218 253 271 276 290 278
17 357 338 344 342 333 271 253 260 208 226 260 263 272 269 251 241 252 255 254 254 255 246 241 241 243 246 245 241 230 188 143 145 172 205 216 203 196 263 297 299 293 288
5 358 344 356 333 337 305 244 233 250 242 255 258 261 266 266 265 241 248 261 271 269 261 261 241 239 227 223 201 236 149 154 161 182 199 201 156 192 226 223 267 314 329
360 349 343 331 303 301 281 268 249 256 233 252 256 257 278 281 272 271 261 245 246 257 271 301 237 228 222 176 150 143 143 146 160 165 175 191 202 200 216 165 231 357 244
351 347 344 334 330 313 309 313 284 279 279 273 273 268 263 257 277 275 270 271 274 270 248 219 237 238 220 197 188 182 176 174 174 161 166 189 208 202 214 199 185 193 265
353 343 345 350 345 345 338 310 312 319 293 289 287 286 287 285 288 289 288 284 260 252 242 232 220 220 214 207 201 192 186 181 151 169 174 189 193 188 188 208 270 291 294
352 335 338 324 320 304 303 310 289 300 308 311 306 303 301 299 297 297 296 295 283 254 239 235 215 215 206 203 195 186 161 149 164 166 173 180 178 172 174 216 203 234 261
358 344 336 327 329 328 326 320 302 290 284 285 300 305 303 303 305 298 295 286 282 273 261 241 225 203 203 198 189 173 160 161 160 159 167 164 165 161 187 212 215 209 226
351 343 346 346 338 331 317 299 300 297 296 296 299 300 307 314 302 294 238 254 268 275 280 267 224 206 195 185 168 155 144 148 150 159 160 158 159 168 187 181 191 186 198
341 337 323 316 297 298 301 308 312 310 307 304 299 300 309 312 309 303 303 278 269 276 278 273 228 211 193 168 154 151 154 158 160 161 155 150 153 168 185 158 156 175 172
333 330 333 332 328 331 327 317 313 307 304 305 308 309 314 307 296 297 297 296 288 288 288 271 239 196 178 171 162 156 159 160 158 157 152 151 152 157 154 158 154 141 141
349 342 339 335 331 323 324 323 321 319 316 313 310 309 311 306 301 296 293 295 296 292 279 245 173 139 137 134 136 149 157 159 153 144 142 145 149 152 154 153 153 143 152
341 343 341 337 336 332 328 325 319 314 311 312 313 314 313 311 308 304 301 301 299 291 261 214 161 151 138 135 133 128 122 126 135 148 145 145 147 153 142 132 158 163 166
347 340 335 329 324 321 321 321 319 317 316 315 314 312 310 309 307 305 303 300 294 253 231 178 154 154 147 139 139 137 149 140 134 134 130 135 142 151 149 142 143 140 159
339 337 333 330 329 327 324 322 319 317 315 313 311 310 309 308 306 305 304 300 278 252 200 146 137 133 134 132 135 139 148 148 143 143 137 144 149 153 156 151 147 144 152